Location: Nitra
(0.0000°N, 18.0833°E)
Time: 19:44:02
(UTC+02:00)

Landsat 7 - Visible Passes

Search period start: 28 May 2024 00:00
Search period end: 07 June 2024 00:00
Orbit: 690 x 692 km, 97.9° (Epoch: 28 May)

Date Brightness Start Highest point End Pass type
(mag) Time Alt. Az. Time Alt. Az. Time Alt. Az.
28 May 3.7 20:03:01 19° SSE 20:06:24 80° ENE 20:11:05 10° N visible
29 May 5.5 20:42:39 16° SSW 20:45:30 30° WSW 20:49:34 10° NW visible
30 May 4.1 19:43:37 14° SE 19:47:20 43° ENE 19:51:46 10° N visible
31 May 4.4 20:23:15 19° S 20:26:27 53° WSW 20:31:00 10° NNW visible
01 Jun 4.9 19:24:28 10° SE 19:28:16 25° ENE 19:32:03 10° NNE visible
01 Jun 6.4 21:02:52 11° SW 21:05:32 16° WSW 21:08:24 10° WNW visible
02 Jun 3.7 20:03:50 18° SSE 20:07:22 84° E 20:12:03 10° N visible
03 Jun 5.6 20:43:27 15° SSW 20:46:28 28° WSW 20:50:28 10° NW visible
04 Jun 4.1 19:44:26 14° SSE 19:48:17 46° ENE 19:52:46 10° N visible
05 Jun 4.5 20:24:02 18° S 20:27:24 51° WSW 20:31:56 10° NNW visible
06 Jun 4.9 19:25:20 10° SE 19:29:13 26° ENE 19:33:04 10° NNE visible
06 Jun 6.4 21:03:45 10° SW 21:06:28 15° WSW 21:09:12 10° WNW visible
